Simultaneous Nadir Overpasses (SNOs) Predictions

Prediction of SNOs between GOES-17 and METOP-B Satellite Orbit:

Table of predicted SNOs for the next 14.0 days since TLE Epoch: 10/29/2022
Index Date Time (GOES-17) GOES-17 Lat,Lon METOP-B Lat,Lon Distance(km) Time Diff (sec)
1 10/29/2022 06:47:27 0.06,-137.33 -0.30,-138.96 185.46 80
2 10/30/2022 06:24:08 0.06,-137.33 0.79,-133.96 383.28 80
3 10/31/2022 18:43:00 -0.05,-137.32 0.21,-138.52 137.14 80
4 11/01/2022 18:25:00 -0.05,-137.31 -0.88,-133.52 431.37 80
5 11/03/2022 06:44:01 0.04,-137.30 -0.17,-138.11 93.40 80
6 11/04/2022 06:20:42 0.04,-137.29 0.99,-133.13 475.02 80
7 11/05/2022 18:39:33 -0.04,-137.28 0.07,-137.68 45.95 80
8 11/08/2022 06:40:35 0.04,-137.25 0.05,-137.28 3.38 80
9 11/10/2022 18:38:47 -0.03,-137.22 -0.09,-136.84 42.99 80
